FW3135 Weather Reports


time (UTC)temp
C
wind
direction
speed
KPH
gust
KPH
rain 1hr
cm
rain 24hr
cm
rain mn
cm
humidity
%
barometer
mb
20260903005326 22 161 0.0 0.0 0.00 0.00 0.00 68 1021.2
20260903004831 22 161 0.0 0.0 0.00 0.00 0.00 68 1021.3
20260903004343 22 161 0.0 0.0 0.00 0.00 0.00 68 1021.3
20260903003827 22 161 0.0 0.0 0.00 0.00 0.00 68 1021.4
20260903003322 22 161 0.0 0.0 0.00 0.00 0.00 67 1021.4
20260903002833 22 161 0.0 0.0 0.00 0.00 0.00 68 1021.5
20260903002355 22 161 0.0 3.2 0.00 0.00 0.00 66 1021.5
20260903001831 22 161 0.0 3.2 0.00 0.00 0.00 66 1021.4
20260903001325 22 165 0.0 8.0 0.00 0.00 0.00 66 1021.4
20260903000818 23 165 4.8 8.0 0.00 0.00 0.00 65 1021.4
20260903000322 23 157 1.6 3.2 0.00 0.00 0.00 64 1021.5
20260902235814 23 185 0.0 0.0 0.00 0.00 0.00 64 1021.4
20260902235315 23 185 0.0 0.0 0.00 0.00 0.00 63 1021.4
20260902234824 23 185 0.0 1.6 0.00 0.00 0.00 63 1021.5
20260902234315 23 185 0.0 4.8 0.00 0.00 0.00 62 1021.4
20260902233816 23 185 1.6 8.0 0.00 0.00 0.00 62 1021.4
20260902233326 24 183 4.8 14.5 0.00 0.00 0.00 61 1021.4
20260902232830 24 360 6.4 17.7 0.00 0.00 0.00 60 1021.2
20260902232323 24 98 8.0 19.3 0.00 0.00 0.00 60 1021.2
20260902231818 24 360 8.0 19.3 0.00 0.00 0.00 60 1021.2
20260902231321 24 80 11.3 19.3 0.00 0.00 0.00 60 1021.2
20260902230814 24 64 11.3 22.5 0.00 0.00 0.00 59 1021.1
20260902230338 24 346 9.7 20.9 0.00 0.00 0.00 59 1021.1
20260902225840 24 49 12.9 20.9 0.00 0.00 0.00 60 1021.1
20260902225316 24 341 9.7 24.1 0.00 0.00 0.00 60 1021.2
20260902224818 24 67 11.3 24.1 0.00 0.00 0.00 60 1021.2
20260902224318 24 50 11.3 22.5 0.00 0.00 0.00 60 1021.1
20260902223832 24 39 11.3 20.9 0.00 0.00 0.00 60 1021.1
20260902223330 24 96 12.9 25.7 0.00 0.00 0.00 60 1021.1
20260902222823 24 344 11.3 25.7 0.00 0.00 0.00 60 1021.2
20260902222318 24 360 11.3 27.4 0.00 0.00 0.00 61 1021.1
20260902221831 24 42 11.3 27.4 0.00 0.00 0.00 61 1021.1
20260902221350 24 360 12.9 20.9 0.00 0.00 0.00 61 1021.3
20260902220820 24 71 11.3 24.1 0.00 0.00 0.00 61 1021.2
20260902220317 24 82 9.7 25.7 0.00 0.00 0.00 61 1021.2
20260902215832 24 53 12.9 25.7 0.00 0.00 0.00 61 1021.1
20260902215353 24 360 11.3 29.0 0.00 0.00 0.00 62 1021.2
20260902214822 24 55 12.9 25.7 0.00 0.00 0.00 62 1021.1
20260902214314 24 32 11.3 24.1 0.00 0.00 0.00 62 1021.3
20260902213836 24 57 12.9 24.1 0.00 0.00 0.00 62 1021.2
20260902213350 23 346 11.3 27.4 0.00 0.00 0.00 63 1021.2
20260902212903 23 40 11.3 27.4 0.00 0.00 0.00 63 1021.1
20260902212327 23 42 11.3 25.7 0.00 0.00 0.00 64 1021.2
20260902211857 23 63 11.3 24.1 0.00 0.00 0.00 64 1021.2
20260902211325 23 37 9.7 27.4 0.00 0.00 0.00 65 1021.2
20260902210829 23 50 9.7 27.4 0.00 0.00 0.00 65 1021.3
20260902210332 23 33 9.7 25.7 0.00 0.00 0.00 65 1021.2
20260902205817 23 92 11.3 25.7 0.00 0.00 0.00 65 1021.3
20260902205325 23 325 11.3 25.7 0.00 0.00 0.00 65 1021.1
20260902204821 23 355 11.3 27.4 0.00 0.00 0.00 66 1021.2
20260902204318 23 55 12.9 27.4 0.00 0.00 0.00 65 1021.2
20260902203836 24 360 11.3 25.7 0.00 0.00 0.00 65 1021.1
20260902203329 24 52 12.9 27.4 0.00 0.00 0.00 65 1021.0
20260902202826 24 39 12.9 30.6 0.00 0.00 0.00 65 1021.0
20260902202328 24 44 14.5 30.6 0.00 0.00 0.00 65 1021.0
20260902201827 24 360 12.9 27.4 0.00 0.00 0.00 66 1021.0
20260902201322 24 46 17.7 27.4 0.00 0.00 0.00 67 1020.9
20260902200847 24 355 12.9 24.1 0.00 0.00 0.00 67 1020.7
20260902200338 24 79 11.3 22.5 0.00 0.00 0.00 68 1020.7
20260902195817 24 298 11.3 27.4 0.00 0.00 0.00 68 1020.6
20260902195340 24 348 12.9 27.4 0.00 0.00 0.00 69 1020.7
20260902194832 24 63 16.1 25.7 0.00 0.00 0.00 69 1020.7
20260902194335 25 344 12.9 24.1 0.00 0.00 0.00 70 1020.6
20260902193831 25 38 9.7 24.1 0.00 0.00 0.00 70 1020.5
20260902193351 25 57 12.9 24.1 0.00 0.00 0.00 71 1020.5
20260902192817 25 98 12.9 24.1 0.00 0.00 0.00 71 1020.4
20260902192320 25 355 11.3 25.7 0.00 0.00 0.00 70 1020.4
20260902191859 25 51 12.9 27.4 0.00 0.00 0.00 70 1020.3
20260902191325 25 360 14.5 24.1 0.00 0.00 0.00 69 1020.5
20260902190846 25 355 9.7 24.1 0.00 0.00 0.00 68 1020.5
20260902190321 26 75 11.3 24.1 0.00 0.00 0.00 67 1020.5
20260902185821 26 360 8.0 19.3 0.00 0.00 0.00 66 1020.5
20260902185320 26 42 6.4 17.7 0.00 0.00 0.00 65 1020.5
20260902184831 26 329 6.4 20.9 0.00 0.00 0.00 65 1020.6
20260902184334 26 57 12.9 20.9 0.00 0.00 0.00 63 1020.5
20260902183827 27 42 9.7 20.9 0.00 0.00 0.00 62 1020.6
20260902183321 27 55 9.7 17.7 0.00 0.00 0.00 61 1020.8
20260902182825 27 42 6.4 17.7 0.00 0.00 0.00 61 1020.7
20260902182322 27 76 8.0 24.1 0.00 0.00 0.00 61 1020.8
20260902181819 27 360 11.3 24.1 0.00 0.00 0.00 60 1020.7
20260902181322 27 31 11.3 20.9 0.00 0.00 0.00 61 1020.7
20260902180817 27 335 11.3 22.5 0.00 0.00 0.00 61 1020.7
20260902180313 27 52 9.7 24.1 0.00 0.00 0.00 61 1020.8
20260902175837 27 40 11.3 22.5 0.00 0.00 0.00 61 1020.7
20260902175331 28 44 11.3 19.3 0.00 0.00 0.00 60 1020.7
20260902174831 28 35 6.4 17.7 0.00 0.00 0.00 61 1020.7
20260902174327 28 40 8.0 19.3 0.00 0.00 0.00 61 1020.8
20260902173829 28 48 8.0 20.9 0.00 0.00 0.00 61 1020.7
20260902173321 28 50 9.7 19.3 0.00 0.00 0.00 61 1020.8
20260902172823 28 47 8.0 19.3 0.00 0.00 0.00 61 1020.8
20260902172338 28 360 8.0 16.1 0.00 0.00 0.00 61 1020.8
20260902171818 28 314 8.0 16.1 0.00 0.00 0.00 60 1020.9
20260902171340 28 73 4.8 16.1 0.00 0.00 0.00 61 1020.8
20260902170815 28 36 4.8 17.7 0.00 0.00 0.00 60 1020.9
20260902170332 28 66 6.4 19.3 0.00 0.00 0.00 60 1020.9
20260902165830 28 360 6.4 19.3 0.00 0.00 0.00 61 1020.8
20260902165326 28 48 6.4 14.5 0.00 0.00 0.00 61 1020.9
20260902164826 28 355 3.2 19.3 0.00 0.00 0.00 62 1021.0
20260902164334 27 72 11.3 19.3 0.00 0.00 0.00 62 1020.8
20260902163821 27 246 1.6 6.4 0.00 0.00 0.00 64 1020.9
20260902163316 27 360 3.2 4.8 0.00 0.00 0.00 64 1021.1
20260902162836 27 234 0.0 9.7 0.00 0.00 0.00 65 1021.1
20260902162314 27 234 3.2 9.7 0.00 0.00 0.00 64 1021.1
20260902161829 27 218 1.6 4.8 0.00 0.00 0.00 64 1021.1
20260902161333 27 200 3.2 4.8 0.00 0.00 0.00 64 1021.0
20260902160822 27 186 3.2 4.8 0.00 0.00 0.00 65 1021.3
20260902160319 27 217 0.0 6.4 0.00 0.00 0.00 66 1021.3
20260902155834 27 216 3.2 6.4 0.00 0.00 0.00 67 1021.5
20260902155337 27 211 1.6 3.2 0.00 0.00 0.00 66 1021.5
20260902154852 27 211 0.0 0.0 0.00 0.00 0.00 65 1021.5
20260902154332 27 209 0.0 0.0 0.00 0.00 0.00 66 1021.3
20260902153829 27 209 0.0 4.8 0.00 0.00 0.00 67 1021.3
20260902153331 27 209 1.6 4.8 0.00 0.00 0.00 67 1021.5
20260902152821 27 211 1.6 6.4 0.00 0.00 0.00 69 1021.6
20260902152321 27 240 3.2 6.4 0.00 0.00 0.00 66 1021.6
20260902151818 27 360 3.2 6.4 0.00 0.00 0.00 64 1021.6
20260902151320 27 251 4.8 6.4 0.00 0.00 0.00 65 1021.6
20260902150833 27 257 4.8 6.4 0.00 0.00 0.00 64 1021.7
20260902150332 26 252 3.2 4.8 0.00 0.00 0.00 65 1021.8
20260902145827 27 360 3.2 4.8 0.00 0.00 0.00 65 1021.9
20260902145352 27 219 1.6 3.2 0.00 0.00 0.00 65 1022.0
20260902144826 27 219 1.6 3.2 0.00 0.00 0.00 66 1022.2
20260902144328 27 232 1.6 3.2 0.00 0.00 0.00 66 1022.2
20260902143819 26 232 0.0 3.2 0.00 0.00 0.00 68 1022.1
20260902143314 26 232 0.0 4.8 0.00 0.00 0.00 69 1022.1
20260902142824 26 232 3.2 4.8 0.00 0.00 0.00 69 1022.1
20260902142345 26 233 3.2 4.8 0.00 0.00 0.00 70 1022.1
20260902141839 26 233 3.2 4.8 0.00 0.00 0.00 71 1022.1
20260902141321 25 231 3.2 4.8 0.00 0.00 0.00 72 1022.1
20260902140833 25 231 1.6 4.8 0.00 0.00 0.00 74 1022.1
20260902140335 25 232 3.2 4.8 0.00 0.00 0.00 73 1022.2
20260902135826 25 232 3.2 4.8 0.00 0.00 0.00 73 1022.2
20260902135319 25 360 3.2 4.8 0.00 0.00 0.00 74 1022.3
20260902134842 25 229 1.6 6.4 0.00 0.00 0.00 75 1022.3
20260902134336 24 360 3.2 6.4 0.00 0.00 0.00 75 1022.3
20260902133815 24 237 3.2 6.4 0.00 0.00 0.00 76 1022.4
20260902133336 24 360 3.2 6.4 0.00 0.00 0.00 77 1022.4
20260902132829 23 360 4.8 6.4 0.00 0.00 0.00 76 1022.4
20260902132331 23 360 3.2 6.4 0.00 0.00 0.00 77 1022.3
20260902131848 23 360 3.2 8.0 0.00 0.00 0.00 76 1022.4
20260902131329 23 360 4.8 8.0 0.00 0.00 0.00 77 1022.4
20260902130826 23 360 6.4 8.0 0.00 0.00 0.00 77 1022.3
20260902130328 23 360 4.8 8.0 0.00 0.00 0.00 78 1022.3
20260902125824 23 360 6.4 8.0 0.00 0.00 0.00 77 1022.4
20260902125317 23 225 3.2 4.8 0.00 0.00 0.00 77 1022.5
20260902124819 23 225 1.6 4.8 0.00 0.00 0.00 78 1022.6
20260902124341 23 205 3.2 6.4 0.00 0.00 0.00 78 1022.6
20260902123841 23 213 3.2 6.4 0.00 0.00 0.00 77 1022.8
20260902123317 23 227 3.2 6.4 0.00 0.00 0.00 78 1022.7
20260902122832 23 360 4.8 6.4 0.00 0.00 0.00 78 1022.8
20260902122335 22 360 3.2 8.0 0.00 0.00 0.00 80 1022.9
20260902121830 22 246 4.8 9.7 0.00 0.00 0.00 80 1023.0
20260902121336 22 360 6.4 11.3 0.00 0.00 0.00 80 1023.1
20260902120829 22 360 6.4 12.9 0.00 0.00 0.00 80 1023.0
20260902120325 22 360 8.0 12.9 0.00 0.00 0.00 79 1023.1
20260902115827 22 234 6.4 9.7 0.00 0.00 0.00 79 1023.1
20260902115329 22 360 4.8 6.4 0.00 0.00 0.00 78 1023.1
20260902114825 22 199 1.6 4.8 0.00 0.00 0.00 79 1023.2
20260902114320 22 199 1.6 4.8 0.00 0.00 0.00 79 1023.4
20260902113841 22 199 1.6 4.8 0.00 0.00 0.00 80 1023.3
20260902113344 22 199 3.2 4.8 0.00 0.00 0.00 80 1023.5
20260902112815 22 242 1.6 4.8 0.00 0.00 0.00 81 1023.5
20260902112327 22 213 1.6 4.8 0.00 0.00 0.00 81 1023.5
20260902111815 21 211 1.6 8.0 0.00 0.00 0.00 82 1023.4
20260902111315 21 360 3.2 9.7 0.00 0.00 0.00 82 1023.5
20260902110817 21 360 3.2 12.9 0.00 0.00 0.00 83 1023.6
20260902110313 21 202 6.4 12.9 0.00 0.00 0.00 83 1023.6
20260902105831 21 360 4.8 12.9 0.00 0.00 0.00 83 1023.5
20260902105327 21 360 8.0 12.9 0.00 0.00 0.00 83 1023.4
20260902104847 21 360 6.4 11.3 0.00 0.00 0.00 83 1023.4
20260902104320 21 232 6.4 12.9 0.00 0.00 0.00 82 1023.4
20260902103830 21 200 6.4 12.9 0.00 0.00 0.00 82 1023.4
20260902103330 21 360 8.0 12.9 0.00 0.00 0.00 82 1023.4
20260902102814 21 360 6.4 12.9 0.00 0.00 0.00 82 1023.4
20260902102337 21 360 6.4 12.9 0.00 0.00 0.00 82 1023.3
20260902101827 21 360 6.4 9.7 0.00 0.00 0.00 82 1023.5
20260902101350 21 240 4.8 9.7 0.00 0.00 0.00 81 1023.5
20260902100825 21 360 4.8 9.7 0.00 0.00 0.00 79 1023.4
20260902100327 21 360 3.2 12.9 0.00 0.00 0.00 80 1023.3
20260902095829 21 360 6.4 12.9 0.00 0.00 0.00 81 1023.2
20260902095324 21 205 1.6 8.0 0.00 0.00 0.00 81 1023.1
20260902094821 21 360 3.2 9.7 0.00 0.00 0.00 80 1023.0
20260902094325 21 188 4.8 9.7 0.00 0.00 0.00 80 1023.1
20260902093820 21 360 4.8 9.7 0.00 0.00 0.00 80 1023.1
20260902093317 21 360 3.2 12.9 0.00 0.00 0.00 78 1023.0
20260902092820 21 129 4.8 12.9 0.00 0.00 0.00 79 1022.9
20260902092317 21 197 3.2 14.5 0.00 0.00 0.00 79 1023.0
20260902091813 21 225 3.2 14.5 0.00 0.00 0.00 79 1023.0
20260902091317 21 169 3.2 9.7 0.00 0.00 0.00 80 1022.9
20260902090814 21 115 1.6 4.8 0.00 0.00 0.00 80 1022.9
20260902090314 20 188 1.6 8.0 0.00 0.00 0.00 80 1022.8
20260902085830 20 231 3.2 9.7 0.00 0.00 0.00 79 1022.8
20260902085314 21 360 1.6 12.9 0.00 0.00 0.00 78 1022.6
20260902084815 21 29 4.8 12.9 0.00 0.00 0.00 78 1022.6
20260902084330 21 316 1.6 14.5 0.00 0.00 0.00 79 1022.7
20260902083834 21 302 4.8 14.5 0.00 0.00 0.00 78 1022.7
20260902083329 21 53 4.8 14.5 0.00 0.00 0.00 79 1022.7
20260902082833 21 293 4.8 16.1 0.00 0.00 0.00 79 1022.7
20260902082328 20 46 9.7 19.3 0.00 0.00 0.00 80 1022.7
20260902081824 20 360 6.4 16.1 0.00 0.00 0.00 80 1022.6
20260902081329 20 82 9.7 20.9 0.00 0.00 0.00 81 1022.6
20260902080825 20 351 11.3 20.9 0.00 0.00 0.00 81 1022.6
20260902080329 20 340 6.4 19.3 0.00 0.00 0.00 81 1022.7
20260902075822 20 42 8.0 14.5 0.00 0.00 0.00 81 1022.4
20260902075318 20 65 3.2 17.7 0.00 0.00 0.00 82 1022.6
20260902074820 20 313 9.7 17.7 0.00 0.00 0.00 82 1022.4
20260902074316 20 349 3.2 16.1 0.00 0.00 0.00 83 1022.6
20260902073815 20 360 3.2 12.9 0.00 0.00 0.00 83 1022.6
20260902073339 19 60 8.0 12.9 0.00 0.00 0.00 83 1022.6
20260902072830 19 61 4.8 14.5 0.00 0.00 0.00 84 1022.4
20260902072332 19 321 4.8 14.5 0.00 0.00 0.00 84 1022.4
20260902071817 19 360 6.4 17.7 0.00 0.00 0.00 84 1022.4
20260902071335 19 42 6.4 14.5 0.00 0.00 0.00 85 1022.3
20260902070826 19 71 4.8 14.5 0.00 0.00 0.00 85 1022.3
20260902070321 18 78 4.8 14.5 0.00 0.00 0.00 86 1022.2
20260902065905 18 76 4.8 11.3 0.00 0.00 0.00 86 1022.2
20260902065315 18 73 4.8 11.3 0.00 0.00 0.00 86 1022.0
20260902064856 18 90 1.6 4.8 0.00 0.00 0.00 87 1022.1
20260902064324 18 51 0.0 6.4 0.00 0.00 0.00 86 1022.0
20260902063824 18 121 1.6 6.4 0.00 0.00 0.00 87 1022.0
20260902063316 18 41 1.6 6.4 0.00 0.00 0.00 87 1021.9
20260902062830 18 62 3.2 12.9 0.00 0.00 0.00 87 1021.9
20260902062321 18 51 4.8 12.9 0.00 0.00 0.00 86 1021.9
20260902061841 18 52 1.6 12.9 0.00 0.00 0.00 86 1021.8
20260902061425 18 95 3.2 9.7 0.00 0.00 0.00 86 1021.7
20260902060826 18 92 1.6 9.7 0.00 0.00 0.00 86 1021.7
20260902060316 18 99 1.6 9.7 0.00 0.00 0.00 86 1021.6
20260902055824 18 75 4.8 12.9 0.00 0.00 0.00 86 1021.7
20260902055343 18 321 6.4 12.9 0.00 0.00 0.00 86 1021.6
20260902054816 18 86 1.6 9.7 0.00 0.00 0.00 86 1021.4
20260902054354 18 50 0.0 16.1 0.00 0.00 0.00 86 1021.4
20260902053824 18 322 3.2 16.1 0.00 0.00 0.00 86 1021.5
20260902053329 18 93 4.8 14.5 0.00 0.00 0.00 86 1021.3
20260902052823 18 225 1.6 14.5 0.00 0.00 0.00 86 1021.2
20260902052341 18 311 3.2 14.5 0.00 0.00 0.00 86 1021.2
20260902051827 18 310 1.6 19.3 0.00 0.00 0.00 86 1021.1
20260902051316 18 360 3.2 19.3 0.00 0.00 0.00 86 1021.0
20260902050816 18 86 6.4 19.3 0.00 0.00 0.00 86 1020.9
20260902050313 18 308 4.8 19.3 0.00 0.00 0.00 86 1020.8
20260902045827 18 73 3.2 25.7 0.00 0.00 0.00 86 1020.8
20260902045322 18 132 12.9 27.4 0.00 0.00 0.00 86 1020.8
20260902044818 18 79 12.9 29.0 0.00 0.00 0.00 86 1020.7
20260902044325 18 88 11.3 30.6 0.00 0.00 0.00 86 1020.6
20260902043818 18 47 11.3 30.6 0.00 0.00 0.00 86 1020.6
20260902043332 18 53 12.9 29.0 0.00 0.00 0.00 86 1020.6
20260902042823 18 51 14.5 27.4 0.00 0.00 0.00 86 1020.8
20260902042325 18 59 14.5 27.4 0.00 0.00 0.00 86 1020.8
20260902041833 18 28 14.5 27.4 0.00 0.00 0.00 86 1020.8
20260902041325 18 41 12.9 27.4 0.00 0.00 0.00 85 1020.9
20260902040822 18 355 14.5 29.0 0.00 0.00 0.00 85 1021.0
20260902040314 18 355 12.9 27.4 0.00 0.00 0.00 85 1021.0
20260902035813 18 67 11.3 25.7 0.00 0.00 0.00 85 1021.0
20260902035325 18 338 12.9 32.2 0.00 0.00 0.00 85 1021.0
20260902034818 18 330 16.1 32.2 0.00 0.00 0.00 85 1021.0
20260902034333 18 65 12.9 30.6 0.00 0.00 0.00 85 1021.1
20260902033831 18 65 16.1 32.2 0.00 0.00 0.00 85 1021.1
20260902033316 18 31 14.5 25.7 0.00 0.00 0.00 85 1021.1
20260902032814 18 42 9.7 25.7 0.00 0.00 0.00 85 1021.2
20260902032330 18 71 12.9 30.6 0.00 0.00 0.00 85 1021.2
20260902031828 18 42 16.1 30.6 0.00 0.00 0.00 85 1021.3
20260902031325 18 346 14.5 25.7 0.00 0.00 0.00 85 1021.3
20260902030822 18 309 8.0 25.7 0.00 0.00 0.00 85 1021.4
20260902030321 18 334 11.3 29.0 0.00 0.00 0.00 85 1021.4
20260902025827 18 300 11.3 29.0 0.00 0.00 0.00 85 1021.5
20260902025321 18 360 14.5 25.7 0.00 0.00 0.00 85 1021.4
20260902024821 18 39 9.7 25.7 0.00 0.00 0.00 85 1021.4
20260902024318 18 315 16.1 25.7 0.00 0.00 0.00 85 1021.5
20260902023822 18 32 16.1 25.7 0.00 0.00 0.00 85 1021.4
20260902023338 18 42 9.7 24.1 0.00 0.00 0.00 85 1021.4
20260902022840 18 34 12.9 35.4 0.00 0.00 0.00 85 1021.5
20260902022332 18 74 14.5 35.4 0.00 0.00 0.00 85 1021.6
20260902021820 18 333 14.5 30.6 0.00 0.00 0.00 85 1021.6
20260902021353 18 53 14.5 30.6 0.00 0.00 0.00 85 1021.6
20260902020824 18 40 11.3 27.4 0.00 0.00 0.00 85 1021.5
20260902020317 18 47 9.7 25.7 0.00 0.00 0.00 85 1021.6
20260902015853 18 73 14.5 27.4 0.00 0.00 0.00 85 1021.5
20260902015347 18 349 16.1 30.6 0.00 0.00 0.00 85 1021.6
20260902014831 18 75 14.5 27.4 0.00 0.00 0.00 85 1021.6
20260902014318 18 87 11.3 29.0 0.00 0.00 0.00 85 1021.6
20260902013846 18 355 14.5 27.4 0.00 0.00 0.00 85 1021.8
20260902013339 18 28 14.5 30.6 0.00 0.00 0.00 85 1021.8
20260902012851 18 308 19.3 38.6 0.00 0.00 0.00 85 1021.9
20260902012317 18 346 16.1 37.0 0.00 0.00 0.00 85 1021.9
20260902011835 18 39 17.7 37.0 0.00 0.00 0.00 85 1021.9
20260902011328 18 75 14.5 30.6 0.00 0.00 0.00 85 1021.9
20260902010836 18 355 12.9 33.8 0.00 0.00 0.00 84 1021.7
20260902010326 18 55 17.7 29.0 0.00 0.00 0.00 84 1021.8
20260902005824 18 322 14.5 30.6 0.00 0.00 0.00 84 1021.8